Location: Newark
(34.9500°N, 139.9667°E)
Time: 19:47:53
(UTC+00:00)

Transit 2A - Pass Details

Date: 14 December 2019
Orbit: 601 x 957 km, 66.7° (Epoch: 18 January)

Event Time Altitude Azimuth Distance (km) Brightness Sun altitude
Rises 04:56:29 0° 348° (NNW) 2,883 8.6 22.8°
Reaches altitude 10° 04:59:10 10° 5° (N) 2,004 7.8 22.5°
Maximum altitude 05:02:38 22° 55° (NE) 1,438 7.1 22.1°
Drops below altitude 10° 05:06:17 10° 106° (ESE) 2,118 8.2 21.6°
Sets 05:09:11 0° 121° (ESE) 3,096 9.1 21.3°
